| time (UTC) | temp F | wind direction | speed MPH | gust MPH | rain 1hr in | rain 24hr in | rain mn in | humidity % | barometer mb |
| 20260506073057 | 74 | 226 | 17.0 | 28.0 | 0.00 | 0.00 | 0.00 | 81 | 1006.9 |
| 20260506072556 | 74 | 211 | 20.0 | 28.0 | 0.00 | 0.00 | 0.00 | 81 | 1006.8 |
| 20260506072056 | 74 | 200 | 20.0 | 28.0 | 0.00 | 0.00 | 0.00 | 81 | 1007.0 |
| 20260506071600 | 74 | 226 | 18.0 | 27.0 | 0.00 | 0.00 | 0.00 | 81 | 1007.0 |
| 20260506071059 | 74 | 206 | 17.0 | 26.0 | 0.00 | 0.00 | 0.00 | 81 | 1006.7 |
| 20260506070556 | 74 | 223 | 16.0 | 25.0 | 0.00 | 0.00 | 0.00 | 81 | 1007.0 |
| 20260506062057 | 74 | 195 | 13.0 | 24.0 | 0.00 | 0.00 | 0.00 | 82 | 1007.2 |
| 20260506061603 | 74 | 198 | 15.0 | 21.0 | 0.00 | 0.00 | 0.00 | 82 | 1007.2 |
| 20260506061056 | 74 | 198 | 15.0 | 21.0 | 0.00 | 0.00 | 0.00 | 82 | 1007.3 |
| 20260506060557 | 74 | 186 | 13.0 | 19.0 | 0.00 | 0.00 | 0.00 | 82 | 1007.2 |
| 20260506051056 | 74 | 224 | 11.0 | 22.0 | 0.00 | 0.00 | 0.00 | 81 | 1007.5 |
| 20260506050557 | 74 | 207 | 13.0 | 19.0 | 0.00 | 0.00 | 0.00 | 81 | 1007.6 |
| 20260506045057 | 74 | 189 | 10.0 | 17.0 | 0.00 | 0.00 | 0.00 | 81 | 1007.2 |
| 20260506044557 | 74 | 199 | 11.0 | 17.0 | 0.00 | 0.00 | 0.00 | 81 | 1007.2 |
| 20260506044056 | 74 | 183 | 9.0 | 17.0 | 0.00 | 0.00 | 0.00 | 81 | 1007.0 |
| 20260506043556 | 74 | 179 | 10.0 | 18.0 | 0.00 | 0.00 | 0.00 | 81 | 1007.4 |
| 20260506043100 | 74 | 181 | 11.0 | 20.0 | 0.00 | 0.00 | 0.00 | 81 | 1007.2 |
| 20260506042556 | 74 | 162 | 12.0 | 20.0 | 0.00 | 0.00 | 0.00 | 81 | 1007.3 |
| 20260506042056 | 74 | 152 | 12.0 | 20.0 | 0.00 | 0.00 | 0.00 | 81 | 1007.4 |
| 20260506041558 | 74 | 189 | 10.0 | 18.0 | 0.00 | 0.00 | 0.00 | 81 | 1007.6 |
| 20260506041055 | 74 | 177 | 11.0 | 19.0 | 0.00 | 0.00 | 0.00 | 80 | 1007.5 |
| 20260506040556 | 74 | 187 | 14.0 | 19.0 | 0.00 | 0.00 | 0.00 | 80 | 1007.6 |
| 20260506040100 | 74 | 179 | 11.0 | 18.0 | 0.00 | 0.00 | 0.00 | 80 | 1007.7 |
| 20260506035556 | 74 | 175 | 12.0 | 18.0 | 0.00 | 0.00 | 0.00 | 80 | 1007.8 |
| 20260506035056 | 74 | 180 | 10.0 | 19.0 | 0.00 | 0.00 | 0.00 | 80 | 1007.7 |
| 20260506034612 | 75 | 165 | 10.0 | 19.0 | 0.00 | 0.00 | 0.00 | 80 | 1007.8 |
| 20260506034056 | 75 | 196 | 13.0 | 19.0 | 0.00 | 0.00 | 0.00 | 80 | 1008.0 |
| 20260506033556 | 74 | 170 | 11.0 | 18.0 | 0.00 | 0.00 | 0.00 | 80 | 1007.7 |
| 20260506033059 | 74 | 212 | 9.0 | 18.0 | 0.00 | 0.00 | 0.00 | 80 | 1007.7 |
| 20260506032556 | 74 | 169 | 11.0 | 18.0 | 0.00 | 0.00 | 0.00 | 80 | 1007.6 |
| 20260506032056 | 74 | 174 | 12.0 | 18.0 | 0.00 | 0.00 | 0.00 | 80 | 1007.7 |
| 20260506031605 | 75 | 194 | 10.0 | 15.0 | 0.00 | 0.00 | 0.00 | 79 | 1007.6 |
| 20260506031058 | 75 | 184 | 4.0 | 13.0 | 0.00 | 0.00 | 0.00 | 79 | 1007.7 |
| 20260506030556 | 75 | 0 | 6.0 | 13.0 | 0.00 | 0.00 | 0.00 | 79 | 1007.6 |
| 20260506030054 | 75 | 187 | 8.0 | 16.0 | 0.00 | 0.00 | 0.00 | 79 | 1008.0 |
| 20260506025557 | 75 | 179 | 7.0 | 16.0 | 0.00 | 0.00 | 0.00 | 79 | 1007.9 |
| 20260506025056 | 75 | 183 | 11.0 | 18.0 | 0.00 | 0.00 | 0.00 | 79 | 1007.7 |
| 20260506024556 | 75 | 171 | 9.0 | 18.0 | 0.00 | 0.00 | 0.00 | 79 | 1007.6 |
| 20260506024056 | 75 | 169 | 9.0 | 14.0 | 0.00 | 0.00 | 0.00 | 79 | 1007.6 |
| 20260506023556 | 75 | 176 | 6.0 | 14.0 | 0.00 | 0.00 | 0.00 | 78 | 1007.3 |
| 20260506023105 | 75 | 226 | 7.0 | 15.0 | 0.00 | 0.00 | 0.00 | 78 | 1007.4 |
| 20260506022556 | 75 | 175 | 10.0 | 15.0 | 0.00 | 0.00 | 0.00 | 78 | 1007.4 |
| 20260506022056 | 75 | 196 | 7.0 | 18.0 | 0.00 | 0.00 | 0.00 | 78 | 1007.2 |
| 20260506021553 | 75 | 219 | 7.0 | 23.0 | 0.00 | 0.00 | 0.00 | 78 | 1007.2 |
| 20260506021100 | 75 | 193 | 9.0 | 23.0 | 0.00 | 0.00 | 0.00 | 78 | 1007.1 |
| 20260506020555 | 75 | 167 | 10.0 | 19.0 | 0.00 | 0.00 | 0.00 | 78 | 1007.1 |
| 20260506020057 | 75 | 168 | 11.0 | 19.0 | 0.00 | 0.00 | 0.00 | 78 | 1006.8 |
| 20260506015556 | 75 | 181 | 14.0 | 19.0 | 0.00 | 0.00 | 0.00 | 77 | 1006.9 |
| 20260506015059 | 75 | 165 | 10.0 | 19.0 | 0.00 | 0.00 | 0.00 | 77 | 1007.0 |
| 20260506014554 | 75 | 159 | 12.0 | 19.0 | 0.00 | 0.00 | 0.00 | 77 | 1007.1 |
| 20260506014056 | 75 | 195 | 11.0 | 19.0 | 0.00 | 0.00 | 0.00 | 77 | 1007.0 |
| 20260506013556 | 75 | 196 | 8.0 | 19.0 | 0.00 | 0.00 | 0.00 | 77 | 1006.8 |
| 20260506013109 | 75 | 166 | 13.0 | 19.0 | 0.00 | 0.00 | 0.00 | 77 | 1007.0 |
| 20260506012556 | 75 | 176 | 11.0 | 22.0 | 0.00 | 0.00 | 0.00 | 77 | 1006.8 |
| 20260506012059 | 75 | 188 | 15.0 | 22.0 | 0.00 | 0.00 | 0.00 | 77 | 1006.7 |
| 20260506011600 | 75 | 191 | 12.0 | 22.0 | 0.00 | 0.00 | 0.00 | 77 | 1006.5 |
| 20260506011056 | 75 | 169 | 12.0 | 26.0 | 0.00 | 0.00 | 0.00 | 77 | 1006.2 |
| 20260506010556 | 75 | 177 | 15.0 | 26.0 | 0.00 | 0.00 | 0.00 | 77 | 1006.1 |
| 20260506010117 | 75 | 198 | 17.0 | 25.0 | 0.00 | 0.00 | 0.00 | 77 | 1006.0 |
| 20260506005555 | 75 | 151 | 14.0 | 23.0 | 0.00 | 0.00 | 0.00 | 77 | 1006.0 |
| 20260506005057 | 75 | 184 | 11.0 | 19.0 | 0.00 | 0.00 | 0.00 | 77 | 1006.0 |
| 20260506004555 | 75 | 177 | 13.0 | 19.0 | 0.00 | 0.00 | 0.00 | 76 | 1006.1 |
| 20260506004055 | 75 | 191 | 12.0 | 19.0 | 0.00 | 0.00 | 0.00 | 76 | 1006.1 |
| 20260506003556 | 75 | 171 | 13.0 | 20.0 | 0.00 | 0.00 | 0.00 | 76 | 1006.2 |
| 20260506003114 | 75 | 167 | 12.0 | 20.0 | 0.00 | 0.00 | 0.00 | 76 | 1006.4 |
| 20260506002556 | 75 | 193 | 6.0 | 19.0 | 0.00 | 0.00 | 0.00 | 76 | 1006.4 |
| 20260506002056 | 75 | 162 | 10.0 | 19.0 | 0.00 | 0.00 | 0.00 | 76 | 1006.3 |
| 20260506001601 | 75 | 174 | 9.0 | 18.0 | 0.00 | 0.00 | 0.00 | 76 | 1006.1 |
| 20260506001056 | 75 | 204 | 11.0 | 19.0 | 0.00 | 0.00 | 0.00 | 77 | 1006.3 |
| 20260506000557 | 75 | 151 | 11.0 | 19.0 | 0.00 | 0.00 | 0.00 | 77 | 1006.2 |
| 20260506000056 | 75 | 171 | 13.0 | 19.0 | 0.00 | 0.00 | 0.00 | 77 | 1006.2 |
| 20260505235556 | 75 | 176 | 14.0 | 19.0 | 0.00 | 0.00 | 0.00 | 77 | 1006.1 |
| 20260505235057 | 75 | 159 | 11.0 | 18.0 | 0.00 | 0.00 | 0.00 | 77 | 1006.2 |
| 20260505234559 | 75 | 150 | 12.0 | 18.0 | 0.00 | 0.00 | 0.00 | 77 | 1006.1 |
| 20260505234100 | 75 | 156 | 12.0 | 18.0 | 0.00 | 0.00 | 0.00 | 76 | 1006.3 |
| 20260505233557 | 75 | 194 | 11.0 | 18.0 | 0.00 | 0.00 | 0.00 | 76 | 1006.4 |
| 20260505233106 | 75 | 166 | 11.0 | 20.0 | 0.00 | 0.00 | 0.00 | 76 | 1006.4 |
| 20260505232555 | 75 | 170 | 12.0 | 20.0 | 0.00 | 0.00 | 0.00 | 76 | 1006.5 |
| 20260505232055 | 75 | 176 | 11.0 | 20.0 | 0.00 | 0.00 | 0.00 | 76 | 1006.3 |
| 20260505231556 | 75 | 166 | 14.0 | 23.0 | 0.00 | 0.00 | 0.00 | 76 | 1006.2 |
| 20260505231055 | 75 | 148 | 14.0 | 23.0 | 0.00 | 0.00 | 0.00 | 76 | 1006.2 |
| 20260505230556 | 75 | 218 | 14.0 | 20.0 | 0.00 | 0.00 | 0.00 | 76 | 1006.6 |
| 20260505230057 | 74 | 165 | 14.0 | 19.0 | 0.00 | 0.00 | 0.00 | 76 | 1006.9 |
| 20260505225556 | 74 | 165 | 14.0 | 22.0 | 0.00 | 0.00 | 0.00 | 76 | 1006.9 |
| 20260505225056 | 74 | 176 | 12.0 | 22.0 | 0.00 | 0.00 | 0.00 | 77 | 1007.1 |
| 20260505224556 | 74 | 176 | 14.0 | 20.0 | 0.00 | 0.00 | 0.00 | 77 | 1007.0 |
| 20260505224056 | 74 | 182 | 13.0 | 20.0 | 0.00 | 0.00 | 0.00 | 77 | 1007.0 |
| 20260505223555 | 74 | 174 | 13.0 | 20.0 | 0.00 | 0.00 | 0.00 | 78 | 1007.1 |
| 20260505223058 | 74 | 175 | 12.0 | 19.0 | 0.00 | 0.00 | 0.00 | 79 | 1007.2 |
| 20260505222555 | 73 | 193 | 14.0 | 22.0 | 0.00 | 0.00 | 0.00 | 79 | 1007.2 |
| 20260505222055 | 73 | 191 | 13.0 | 22.0 | 0.00 | 0.00 | 0.00 | 79 | 1007.4 |
| 20260505221556 | 73 | 186 | 13.0 | 23.0 | 0.00 | 0.00 | 0.00 | 80 | 1007.2 |
| 20260505221055 | 73 | 176 | 15.0 | 23.0 | 0.00 | 0.00 | 0.00 | 80 | 1007.2 |
| 20260505220557 | 73 | 176 | 15.0 | 23.0 | 0.00 | 0.00 | 0.00 | 81 | 1007.3 |
| 20260505220058 | 73 | 170 | 13.0 | 22.0 | 0.00 | 0.00 | 0.00 | 81 | 1007.4 |
| 20260505215600 | 72 | 205 | 15.0 | 22.0 | 0.00 | 0.00 | 0.00 | 81 | 1007.2 |
| 20260505215055 | 72 | 149 | 15.0 | 27.0 | 0.00 | 0.00 | 0.00 | 81 | 1007.2 |
| 20260505214609 | 72 | 186 | 17.0 | 27.0 | 0.00 | 0.00 | 0.00 | 81 | 1007.4 |
| 20260505214053 | 72 | 203 | 19.0 | 27.0 | 0.00 | 0.00 | 0.00 | 81 | 1007.4 |
| 20260505213554 | 72 | 175 | 17.0 | 23.0 | 0.00 | 0.00 | 0.00 | 81 | 1007.3 |
| 20260505213052 | 72 | 167 | 15.0 | 25.0 | 0.00 | 0.00 | 0.00 | 82 | 1007.3 |
| 20260505212554 | 72 | 170 | 17.0 | 25.0 | 0.00 | 0.00 | 0.00 | 81 | 1007.3 |
| 20260505212053 | 72 | 175 | 16.0 | 25.0 | 0.00 | 0.00 | 0.00 | 81 | 1007.4 |
| 20260505211556 | 72 | 183 | 17.0 | 28.0 | 0.00 | 0.00 | 0.00 | 81 | 1007.4 |
| 20260505211053 | 72 | 196 | 21.0 | 28.0 | 0.00 | 0.00 | 0.00 | 81 | 1007.6 |
| 20260505210553 | 73 | 167 | 21.0 | 30.0 | 0.00 | 0.00 | 0.00 | 80 | 1007.5 |
| 20260505210055 | 73 | 172 | 20.0 | 30.0 | 0.00 | 0.00 | 0.00 | 80 | 1007.5 |
| 20260505205553 | 73 | 160 | 23.0 | 30.0 | 0.00 | 0.00 | 0.00 | 79 | 1007.6 |
| 20260505205054 | 73 | 190 | 21.0 | 32.0 | 0.00 | 0.00 | 0.00 | 78 | 1007.7 |
| 20260505204553 | 73 | 190 | 20.0 | 32.0 | 0.00 | 0.00 | 0.00 | 78 | 1007.6 |
| 20260505204053 | 74 | 176 | 18.0 | 23.0 | 0.00 | 0.00 | 0.00 | 77 | 1007.8 |
| 20260505203553 | 74 | 176 | 16.0 | 22.0 | 0.00 | 0.00 | 0.00 | 77 | 1007.8 |
| 20260505203056 | 74 | 170 | 15.0 | 20.0 | 0.00 | 0.00 | 0.00 | 77 | 1008.0 |
| 20260505202555 | 73 | 167 | 12.0 | 24.0 | 0.00 | 0.00 | 0.00 | 78 | 1008.0 |
| 20260505202055 | 73 | 192 | 16.0 | 27.0 | 0.00 | 0.00 | 0.00 | 78 | 1008.1 |
| 20260505201557 | 73 | 164 | 19.0 | 27.0 | 0.00 | 0.00 | 0.00 | 77 | 1008.1 |
| 20260505201056 | 74 | 186 | 19.0 | 27.0 | 0.00 | 0.00 | 0.00 | 76 | 1008.0 |
| 20260505200553 | 74 | 160 | 17.0 | 23.0 | 0.00 | 0.00 | 0.00 | 75 | 1008.1 |
| 20260505200056 | 74 | 177 | 16.0 | 26.0 | 0.00 | 0.00 | 0.00 | 75 | 1008.2 |
| 20260505195552 | 74 | 193 | 19.0 | 26.0 | 0.00 | 0.00 | 0.00 | 75 | 1008.2 |
| 20260505195052 | 74 | 200 | 20.0 | 29.0 | 0.00 | 0.00 | 0.00 | 75 | 1008.1 |
| 20260505194555 | 74 | 205 | 20.0 | 29.0 | 0.00 | 0.00 | 0.00 | 74 | 1008.2 |
| 20260505194053 | 74 | 196 | 17.0 | 26.0 | 0.00 | 0.00 | 0.00 | 74 | 1008.2 |
| 20260505193556 | 74 | 200 | 20.0 | 29.0 | 0.00 | 0.00 | 0.00 | 74 | 1008.0 |
| 20260505193053 | 74 | 204 | 20.0 | 29.0 | 0.00 | 0.00 | 0.00 | 74 | 1008.3 |
| 20260505192553 | 74 | 191 | 19.0 | 27.0 | 0.00 | 0.00 | 0.00 | 74 | 1008.3 |
| 20260505192053 | 74 | 180 | 19.0 | 26.0 | 0.00 | 0.00 | 0.00 | 74 | 1008.3 |
| 20260505191605 | 74 | 179 | 19.0 | 26.0 | 0.00 | 0.00 | 0.00 | 74 | 1008.4 |
| 20260505191058 | 74 | 167 | 16.0 | 26.0 | 0.00 | 0.00 | 0.00 | 74 | 1008.4 |
| 20260505190552 | 74 | 190 | 19.0 | 25.0 | 0.00 | 0.00 | 0.00 | 74 | 1008.3 |
| 20260505185556 | 74 | 196 | 14.0 | 30.0 | 0.00 | 0.00 | 0.00 | 74 | 1008.4 |
| 20260505185056 | 74 | 203 | 18.0 | 30.0 | 0.00 | 0.00 | 0.00 | 75 | 1008.3 |
| 20260505184558 | 74 | 189 | 22.0 | 30.0 | 0.00 | 0.00 | 0.00 | 75 | 1008.5 |
| 20260505184053 | 73 | 188 | 16.0 | 29.0 | 0.00 | 0.00 | 0.00 | 75 | 1008.5 |
| 20260505183553 | 73 | 193 | 18.0 | 29.0 | 0.00 | 0.00 | 0.00 | 75 | 1008.5 |
| 20260505183114 | 73 | 196 | 21.0 | 29.0 | 0.00 | 0.00 | 0.00 | 75 | 1008.4 |
| 20260505182553 | 73 | 188 | 20.0 | 27.0 | 0.00 | 0.00 | 0.00 | 75 | 1008.4 |
| 20260505182053 | 73 | 162 | 18.0 | 26.0 | 0.00 | 0.00 | 0.00 | 75 | 1008.3 |
| 20260505181557 | 72 | 162 | 15.0 | 26.0 | 0.00 | 0.00 | 0.00 | 77 | 1008.4 |
| 20260505181056 | 72 | 178 | 12.0 | 22.0 | 0.00 | 0.00 | 0.00 | 77 | 1008.4 |
| 20260505180554 | 72 | 169 | 16.0 | 23.0 | 0.00 | 0.00 | 0.00 | 76 | 1008.4 |
| 20260505180054 | 71 | 188 | 15.0 | 23.0 | 0.00 | 0.00 | 0.00 | 78 | 1008.6 |
| 20260505175553 | 71 | 208 | 15.0 | 23.0 | 0.00 | 0.00 | 0.00 | 78 | 1008.6 |
| 20260505175056 | 71 | 182 | 13.0 | 28.0 | 0.00 | 0.00 | 0.00 | 78 | 1008.8 |
| 20260505174554 | 71 | 160 | 15.0 | 28.0 | 0.00 | 0.00 | 0.00 | 79 | 1008.7 |
| 20260505174053 | 71 | 173 | 20.0 | 28.0 | 0.00 | 0.00 | 0.00 | 79 | 1008.7 |
| 20260505173555 | 70 | 170 | 19.0 | 26.0 | 0.00 | 0.00 | 0.00 | 79 | 1008.8 |
| 20260505173101 | 70 | 183 | 19.0 | 27.0 | 0.00 | 0.00 | 0.00 | 79 | 1008.8 |
| 20260505172557 | 70 | 192 | 20.0 | 28.0 | 0.00 | 0.00 | 0.00 | 79 | 1008.9 |
| 20260505172055 | 70 | 198 | 19.0 | 28.0 | 0.00 | 0.00 | 0.00 | 78 | 1009.0 |
| 20260505171601 | 71 | 183 | 21.0 | 28.0 | 0.00 | 0.00 | 0.00 | 77 | 1009.1 |
| 20260505171056 | 71 | 165 | 19.0 | 26.0 | 0.00 | 0.00 | 0.00 | 77 | 1009.1 |
| 20260505170554 | 71 | 184 | 17.0 | 26.0 | 0.00 | 0.00 | 0.00 | 77 | 1009.1 |
| 20260505170058 | 71 | 186 | 19.0 | 28.0 | 0.00 | 0.00 | 0.00 | 77 | 1009.2 |
| 20260505165558 | 71 | 175 | 19.0 | 28.0 | 0.00 | 0.00 | 0.00 | 76 | 1009.1 |
| 20260505165053 | 71 | 182 | 20.0 | 33.0 | 0.00 | 0.00 | 0.00 | 76 | 1009.1 |
| 20260505164553 | 71 | 169 | 19.0 | 33.0 | 0.00 | 0.00 | 0.00 | 76 | 1009.2 |
| 20260505164053 | 71 | 165 | 23.0 | 33.0 | 0.00 | 0.00 | 0.00 | 76 | 1009.3 |
| 20260505163553 | 71 | 187 | 19.0 | 27.0 | 0.00 | 0.00 | 0.00 | 76 | 1009.3 |
| 20260505163056 | 71 | 167 | 18.0 | 28.0 | 0.00 | 0.00 | 0.00 | 75 | 1009.4 |
| 20260505162552 | 71 | 224 | 18.0 | 28.0 | 0.00 | 0.00 | 0.00 | 76 | 1009.4 |
| 20260505162054 | 71 | 199 | 20.0 | 29.0 | 0.00 | 0.00 | 0.00 | 76 | 1009.4 |
| 20260505161616 | 71 | 195 | 18.0 | 29.0 | 0.00 | 0.00 | 0.00 | 75 | 1009.3 |
| 20260505161054 | 71 | 180 | 22.0 | 29.0 | 0.00 | 0.00 | 0.00 | 75 | 1009.3 |
| 20260505160556 | 70 | 183 | 17.0 | 26.0 | 0.00 | 0.00 | 0.00 | 76 | 1009.2 |
| 20260505153103 | 69 | 212 | 16.0 | 25.0 | 0.00 | 0.00 | 0.00 | 77 | 1009.5 |
| 20260505152553 | 69 | 175 | 19.0 | 25.0 | 0.00 | 0.00 | 0.00 | 77 | 1009.4 |
| 20260505152052 | 68 | 165 | 17.0 | 22.0 | 0.00 | 0.00 | 0.00 | 77 | 1009.5 |
| 20260505151614 | 68 | 194 | 13.0 | 25.0 | 0.00 | 0.00 | 0.00 | 78 | 1009.6 |
| 20260505151055 | 68 | 181 | 17.0 | 25.0 | 0.00 | 0.00 | 0.00 | 78 | 1009.6 |
| 20260505150553 | 68 | 183 | 15.0 | 21.0 | 0.00 | 0.00 | 0.00 | 78 | 1009.6 |
| 20260505140553 | 66 | 210 | 13.0 | 19.0 | 0.00 | 0.00 | 0.00 | 77 | 1009.9 |
| 20260505124559 | 64 | 208 | 16.0 | 23.0 | 0.00 | 0.00 | 0.00 | 77 | 1009.3 |
| 20260505124053 | 64 | 186 | 15.0 | 22.0 | 0.00 | 0.00 | 0.00 | 77 | 1009.4 |
| 20260505123556 | 64 | 195 | 13.0 | 20.0 | 0.00 | 0.00 | 0.00 | 77 | 1009.4 |
| 20260505123057 | 64 | 195 | 12.0 | 21.0 | 0.00 | 0.00 | 0.00 | 78 | 1009.2 |
| 20260505122554 | 63 | 174 | 15.0 | 21.0 | 0.00 | 0.00 | 0.00 | 78 | 1009.1 |
| 20260505122055 | 63 | 201 | 15.0 | 18.0 | 0.00 | 0.00 | 0.00 | 79 | 1009.1 |
| 20260505121556 | 63 | 195 | 13.0 | 20.0 | 0.00 | 0.00 | 0.00 | 79 | 1009.1 |
| 20260505121057 | 62 | 195 | 14.0 | 20.0 | 0.00 | 0.00 | 0.00 | 79 | 1009.0 |
| 20260505120557 | 62 | 183 | 15.0 | 20.0 | 0.00 | 0.00 | 0.00 | 79 | 1008.8 |
| 20260505120110 | 62 | 183 | 14.0 | 20.0 | 0.00 | 0.00 | 0.00 | 79 | 1008.7 |
| 20260505115556 | 62 | 187 | 13.0 | 20.0 | 0.00 | 0.00 | 0.00 | 80 | 1008.7 |
| 20260505115057 | 62 | 189 | 12.0 | 21.0 | 0.00 | 0.00 | 0.00 | 79 | 1008.7 |
| 20260505114600 | 62 | 179 | 15.0 | 21.0 | 0.00 | 0.00 | 0.00 | 79 | 1008.7 |
| 20260505114057 | 62 | 167 | 14.0 | 21.0 | 0.00 | 0.00 | 0.00 | 79 | 1008.6 |
| 20260505113555 | 62 | 182 | 12.0 | 18.0 | 0.00 | 0.00 | 0.00 | 80 | 1008.6 |
| 20260505113059 | 62 | 166 | 13.0 | 18.0 | 0.00 | 0.00 | 0.00 | 80 | 1008.6 |
| 20260505112555 | 62 | 172 | 11.0 | 17.0 | 0.00 | 0.00 | 0.00 | 80 | 1008.7 |
| 20260505112055 | 62 | 177 | 12.0 | 20.0 | 0.00 | 0.00 | 0.00 | 80 | 1008.6 |
| 20260505111555 | 62 | 169 | 12.0 | 20.0 | 0.00 | 0.00 | 0.00 | 80 | 1008.6 |
| 20260505111055 | 62 | 183 | 12.0 | 20.0 | 0.00 | 0.00 | 0.00 | 80 | 1008.6 |
| 20260505110555 | 61 | 184 | 9.0 | 18.0 | 0.00 | 0.00 | 0.00 | 80 | 1008.6 |
| 20260505102056 | 62 | 165 | 11.0 | 18.0 | 0.00 | 0.00 | 0.00 | 78 | 1008.3 |
| 20260505101554 | 62 | 177 | 11.0 | 18.0 | 0.00 | 0.00 | 0.00 | 77 | 1008.4 |
| 20260505101055 | 62 | 169 | 10.0 | 17.0 | 0.00 | 0.00 | 0.00 | 77 | 1008.5 |
| 20260505100555 | 62 | 159 | 10.0 | 17.0 | 0.00 | 0.00 | 0.00 | 77 | 1008.5 |
| 20260505100055 | 62 | 155 | 9.0 | 15.0 | 0.00 | 0.00 | 0.00 | 77 | 1008.4 |
| 20260505095555 | 62 | 171 | 9.0 | 15.0 | 0.00 | 0.00 | 0.00 | 77 | 1008.4 |
| 20260505095054 | 62 | 179 | 8.0 | 15.0 | 0.00 | 0.00 | 0.00 | 77 | 1008.4 |
| 20260505094553 | 62 | 171 | 10.0 | 15.0 | 0.00 | 0.00 | 0.00 | 77 | 1008.5 |
| 20260505094055 | 62 | 162 | 8.0 | 14.0 | 0.00 | 0.00 | 0.00 | 77 | 1008.5 |
| 20260505093555 | 62 | 155 | 9.0 | 14.0 | 0.00 | 0.00 | 0.00 | 76 | 1008.6 |
| 20260505093056 | 62 | 179 | 10.0 | 14.0 | 0.00 | 0.00 | 0.00 | 76 | 1008.8 |
| 20260505092556 | 62 | 169 | 9.0 | 14.0 | 0.00 | 0.00 | 0.00 | 76 | 1008.8 |
| 20260505092054 | 63 | 203 | 8.0 | 14.0 | 0.00 | 0.00 | 0.00 | 76 | 1008.7 |
| 20260505091552 | 63 | 176 | 8.0 | 15.0 | 0.00 | 0.00 | 0.00 | 75 | 1008.8 |
| 20260505091059 | 63 | 187 | 9.0 | 15.0 | 0.00 | 0.00 | 0.00 | 75 | 1008.8 |
| 20260505090555 | 63 | 162 | 10.0 | 18.0 | 0.00 | 0.00 | 0.00 | 74 | 1008.8 |
| 20260505090053 | 63 | 181 | 11.0 | 18.0 | 0.00 | 0.00 | 0.00 | 74 | 1008.8 |
| 20260505085555 | 63 | 155 | 11.0 | 17.0 | 0.00 | 0.00 | 0.00 | 74 | 1008.8 |
| 20260505085055 | 63 | 181 | 9.0 | 16.0 | 0.00 | 0.00 | 0.00 | 74 | 1008.7 |
| 20260505084554 | 64 | 174 | 9.0 | 18.0 | 0.00 | 0.00 | 0.00 | 73 | 1008.8 |
| 20260505084055 | 64 | 171 | 11.0 | 18.0 | 0.00 | 0.00 | 0.00 | 73 | 1008.9 |
| 20260505083554 | 64 | 199 | 11.0 | 17.0 | 0.00 | 0.00 | 0.00 | 73 | 1009.0 |
| 20260505083054 | 64 | 185 | 11.0 | 16.0 | 0.00 | 0.00 | 0.00 | 73 | 1009.0 |
| 20260505082554 | 64 | 170 | 8.0 | 13.0 | 0.00 | 0.00 | 0.00 | 73 | 1008.9 |
| 20260505082055 | 64 | 172 | 8.0 | 13.0 | 0.00 | 0.00 | 0.00 | 73 | 1008.9 |
| 20260505081604 | 64 | 175 | 8.0 | 12.0 | 0.00 | 0.00 | 0.00 | 73 | 1008.9 |
| 20260505081055 | 64 | 160 | 7.0 | 11.0 | 0.00 | 0.00 | 0.00 | 73 | 1008.9 |
| 20260505080555 | 64 | 189 | 5.0 | 12.0 | 0.00 | 0.00 | 0.00 | 72 | 1008.9 |